map of CMN home
CMN - Airport
Location
City:  Casablanca, Casablanca (Dar el Beda), Morocco
Name:Mohammed V International Airport
ICAO:GMMN
IATA:CMN

Details
Type:Airport (Aerodrome, Airfield)
Use:Public/Civil, International (customs port of entry)
Latitude:3322'03"N (33.367467)
Longitude:735'24"W (-7.589966)
Datum:WGS 1984
Elevation:656 ft (200 m)
Variation:1.82W (WMM2015 magnetic declination)
0.11 annual change
Runways:2
Longest:12205 × 148 ft (3720 × 45 m), paved

Time
Time Zone:UTC+0 (DST+1)
Local Time:

Weather
METAR:GMMN 142230Z 11003KT 080V150 7000 NSC 10/10 Q1025 NOSIG
TAF:GMMN 141700Z 1418/1524 02010KT CAVOK
BECMG 1420/1422 04004KT 8000 NSC
TEMPO 1500/1508 VRB02KT 3000 BR SCT006
BECMG 1510/1512 32010KT 9999 SCT020 SCT100
TEMPO 1512/1522 32014KT

Related Locations
Nearby:
Farthest:KAT: 12304 mi / 19802 km
Kaitaia, NTL, NZ

Find:

   beyond  
but within

Other Information
Maps:
NOTAMs:
Links:
Sources:

  
flag of Morocco   

Sectional Chart

Flight Planning
at skyvector.com

Satellite Image

Google Maps Satellite view

 

Copyright © 2004-2017 Karl L. Swartz. All rights reserved.
The Great Circle Mapper name and logo are trademarks of the Great Circle Mapper.
All other trademarks mentioned herein belong to their respective owners.
Please see credits for attibutions and further copyright information.

  Follow gcmap on Facebook Follow gcmap on Twitter Follow gcmap on Google+ GCmap on LinkedIn

hCard Microformat

Geo Microformat